Weather Roundup
Issued by NWS Chicago, IL

Home | Current Version | Previous Version | Text Only | Print | Product List | Glossary On
Versions: 1 2 3 4 5 6 7 8 9 10 11 12 13 14 15 16 17 18 19 20 21 22 23 24 25 26 27 28 29 30 31 32 33 34 35 36 37 38 39 40 41 42 43 44 45 46 47 48 49 50
000
NZUS59 KLOT 111208
HRRLOT

CHICAGO AREA WEATHER ROUNDUP
NATIONAL WEATHER SERVICE CHICAGO/ROMEOVILLE IL
600 AM CST MON DEC 11 2017

NOTE: "FAIR" INDICATES FEW OR NO CLOUDS BELOW 12,000 FEET WITH NO
SIGNIFICANT WEATHER AND/OR OBSTRUCTIONS TO VISIBILITY.

* THESE STATIONS ARE NOT UNDER NWS QUALITY CONTROL. THEY ALSO MAY NOT
  REPORT WEATHER SUCH AS PRECIPITATION OR FOG.

ILZ005-006-012>014-019>023-111300-
NORTHEAST ILLINOIS

CITY           SKY/WX    TMP DP  RH WIND       PRES   REMARKS
OHARE          CLOUDY    28  20  71 S10       29.96F WCI  19
6HR MIN TEMP:  23; 6HR MAX TEMP:  28; 6HR PCP: TRACE;

MIDWAY         CLOUDY    28  20  71 S10       29.99F WCI  19
6HR MIN TEMP:  26; 6HR MAX TEMP:  29; 6HR PCP: TRACE;

AURORA         CLOUDY    24  21  88 SE5       29.97F WCI  18
6HR MIN TEMP:  16; 6HR MAX TEMP:  25;

LANSING*       CLOUDY    26  23  89 S5        30.01F WCI  20
WAUKEGAN       CLOUDY    26  19  74 S7        29.96F WCI  18
6HR MIN TEMP:  17; 6HR MAX TEMP:  26; 6HR PCP: TRACE;

DUPAGE AIRPORT CLOUDY    25  22  88 S7        29.95F WCI  17
6HR MIN TEMP:  17; 6HR MAX TEMP:  25;

WHEELING       CLOUDY    27  23  85 S7        29.98F WCI  19
6HR MIN TEMP:  20; 6HR MAX TEMP:  28; 6HR PCP: TRACE;

KANKAKEE*      CLOUDY    25  21  83 S3        30.03F
MORRIS*        CLOUDY    26  22  86 S6        29.98F WCI  19
LEWIS AIRPORT* CLOUDY    26  23  89 S7        29.98F WCI  18
NORTHERLY ISL    N/A     27  19  72 S9          N/A  WCI  18
$$

WIZ051-052-058>065-066-070>072-111300-
SOUTHEAST WISCONSIN

CITY           SKY/WX    TMP DP  RH WIND       PRES   REMARKS
MILWAUKEE      LGT SNOW  25  20  81 S5        29.95F WCI  19
6HR MIN TEMP:  19; 6HR MAX TEMP:  27; 6HR PCP: TRACE;

KENOSHA*       FLURRIES  25  19  78 S5        29.96F WCI  19
RACINE*        LGT SNOW  25  19  78 S5        29.98F WCI  19
BURLINGTON     LGT SNOW  31  31 100 CALM      29.95R
WAUKESHA       LGT SNOW  21  18  86 S6        29.95F WCI  14
WEST BEND      LGT SNOW  21  19  93 S3        29.93F
$$

INZ001>003-010>013-019-020-111300-
NORTHWEST INDIANA

CITY           SKY/WX    TMP DP  RH WIND       PRES   REMARKS
GARY*          CLOUDY    28  19  69 S5        30.02F WCI  23
MICHIGAN CITY* NOT AVBL
RENSSELAER*    NOT AVBL
VALPARAISO     CLOUDY    27  20  75 S5        30.02S WCI  22
$$

LMZ740>746-111300-
SOUTHERN LAKE MICHIGAN

STATION/POSITION TIME  SKY/WX   TEMP WIND        PRES    VSBY
                                AIR  DIR/SP/G
                 (UTC)          (F)  (DEG/KT/KT) (MB)    (MI)
HARRISON CRIB    1140            29  190/ 15/ 16   N/A
BURNHAM HARBOR   1200            28  160/  7/ 10   N/A
CALUMET HARBOR   1148            27  170/  7/  9 1015.3F
BURNS HARBOR     1140            28  200/  7/ 10 1016.9S
MICHIGAN CITY    1140            27  180/  8/  9   N/A
$$

ABBREVIATIONS USED IN REMARKS
   TC - TEMPERATURE IN CELSIUS
  WCI - WIND CHILL INDEX
   HX - HEAT INDEX
  VSB - VISIBILITY
$$




USA.gov is the U.S. government's official web portal to all federal, state and local government web resources and services.